Regional Weather Roundup
Issued by NWS

Home | Current Version | Previous Version | Graphics & Text | Print | Product List | Glossary On
Versions: 1 2 3 4 5 6 7 8 9 10 11 12 13 14 15 16 17 18 19 20 21 22 23 24 25 26 27 28
000
ASUS45 KBOU 010010
RWRCO

WEATHER ROUNDUP FOR COLORADO
NATIONAL WEATHER SERVICE DENVER/BOULDER CO
600 PM MDT FRI SEP 30 2016

NOTE: "FAIR" INDICATES FEW OR NO CLOUDS BELOW 12000 FEET WITH NO
SIGNIFICANT WEATHER AND/OR OBSTRUCTIONS TO VISIBILITY.

COZ001>005-013-030-031-010100-
...NORTHWEST COLORADO...

CITY           SKY/WX    TMP DP  RH WIND       PRES   REMARKS
CRAIG          FAIR      60  48  64 E6        30.24S
HAYDEN         FAIR      63  39  42 NW7       30.26S
MEEKER         FAIR      66  46  48 S10       30.25F
MOUNT WERNER   NOT AVBL
STEAMBOAT SPGS FAIR      64  46  51 SE5       30.28R
WALDEN           N/A     61  32  33 W10       30.35S
$$

COZ006>008-011-010100-
...WEST CENTRAL VALLEYS...

CITY           SKY/WX    TMP DP  RH WIND       PRES   REMARKS
GRAND JUNCTION FAIR      72  51  47 NW3       30.18S
MONTROSE       FAIR      64  46  52 S13       30.26S
EAGLE          PTCLDY    70  39  32 S6        30.26F
RIFLE          FAIR      66  47  50 W13       30.22S
DELTA          FAIR      71  49  46 S7        30.21S
NUCLA          FAIR      63  45  51 SE9       30.29S
$$

COZ017>023-064>068-010100-
...SOUTHWEST COLORADO...

CITY           SKY/WX    TMP DP  RH WIND       PRES   REMARKS
DURANGO        FAIR      68  44  42 W13       30.26R
CORTEZ         FAIR      70  48  45 W9        30.23F
PAGOSA SPRINGS FAIR      67  42  41 SW12G20   30.31R
TELLURIDE      CLOUDY    53  42  67 W12G22    30.43S
WOLF CREEK PAS CLOUDY    43  34  70 CALM      30.58S
$$

COZ009-010-012-014-032>034-037-058>063-010100-
...CENTRAL COLORADO...

CITY           SKY/WX    TMP DP  RH WIND       PRES   REMARKS
ASPEN          MOCLDY    62  41  46 NW6       30.31F
BUENA VISTA    FAIR      65  34  31 CALM      30.30R
COPPER MTN     CLOUDY    45  36  70 NW9       30.56S
BERTHOUD PASS  HAZE      34  23  64 N10G24    30.58S VSB<1/4 WCI  26
COTTONWOOD PAS MOCLDY    59  32  36 SW9G18    30.42S
GUNNISON       MOCLDY    61  43  51 VRB3      30.31R
KREMMLING      FAIR      55  43  62 CALM      30.34R
LEADVILLE      FAIR      54  33  45 NW8       30.42R
MONARCH PASS   CLOUDY    45  34  65 SW14      30.65S
SALIDA         CLOUDY    60  48  64 S6        30.35S
SUNLIGHT       MOCLDY    50  41  71 W6        30.53S
WILKERSON PASS FAIR      39  36  87 E7        30.54F
$$

COZ069>075-010100-
...SAN LUIS VALLEY/SANGRE DE CRISTO MOUNTAINS...

CITY           SKY/WX    TMP DP  RH WIND       PRES   REMARKS
ALAMOSA        FAIR      69  39  33 NW12      30.26S
LA VETA PASS   MOCLDY    54  34  47 MISG      30.45S
SAGUACHE       MOCLDY    59  39  47 NW22      30.32R
$$

COZ035-036-038>040-010100-
...NORTHERN COLORADO FRONT RANGE...

CITY           SKY/WX    TMP DP  RH WIND       PRES   REMARKS
DENVER INTL AP MOCLDY    68  41  37 NE6       30.18S
DMNS CITY PARK   N/A     70  44  38 NW3G10    30.18F
AURORA         MOCLDY    69  44  40 N6        30.21R
FRONT RANGE AP MOCLDY    72  41  33 N5        30.20S
ERIE MUNI ARPT FAIR      71  43  36 CALM      30.17S
BOULDER MUN AP FAIR      66  48  52 CALM      30.18S
CENTENNIAL     MOCLDY    67  42  40 NW6       30.22R
BROOMFIELD     PTCLDY    70  46  43 W7        30.21F
FORT COLLINS   FAIR      72  45  37 S10       30.14R
LONGMONT       FAIR      72  47  40 SW5       30.17F
$$

COZ041-046-047-076>085-087-088-010100-
...PIKES PEAK/PALMER DIVIDE AND SOUTHERN FOOTHILLS...

CITY           SKY/WX    TMP DP  RH WIND       PRES   REMARKS
COLO. SPRINGS  LGT RAIN  65  47  52 N13       30.23R
A. F. ACADEMY  CLOUDY    65  42  43 N8        30.25R
SCHRIEVER AFB  NOT AVBL
ELLICOTT       NOT AVBL
FALCON         MOCLDY    64  40  41 NE8       30.28R
FORT CARSON    FAIR      65  46  49 N10       30.20R
LIMON          FAIR      70  40  33 N8        30.18R
MONUMENT HILL  MOCLDY    61  41  48 NE8       30.30S
TRINIDAD       LGT RAIN  72  43  35 E9G26     30.16R
$$

COZ042>045-048>051-090-091-010100-
...NORTHEAST COLORADO...

CITY           SKY/WX    TMP DP  RH WIND       PRES   REMARKS
GREELEY ARPT   FAIR      73  43  33 SE7       30.15S
AKRON          FAIR      68  44  42 SE10      30.15S
BURLINGTON     FAIR      72  45  37 E14       30.13S
WRAY           NOT AVBL
STERLING       MOCLDY    70  46  43 SE10      30.12R
HOLYOKE        FAIR      72  46  40 SE8       30.15S
FORT MORGAN    FAIR      73  40  29 E10       30.14S
$$

COZ086-089-092>099-010100-
...SOUTHEAST COLORADO...

CITY           SKY/WX    TMP DP  RH WIND       PRES   REMARKS
PUEBLO         FAIR      78  40  25 NE15      30.10R
LA JUNTA       FAIR      80  41  24 NE7       30.07R
LAMAR          FAIR      80  46  30 SE22G29   30.01S
SPRINGFIELD      N/A     73  48  41 SE8       30.08F
$$




USA.gov is the U.S. government's official web portal to all federal, state and local government web resources and services.